This demonstration page uses our WeatherBlox Daily Observations layout. Learn more.

Left ArrowRight Arrow

47.50024, -111.30081

Hourly Observations for May 13, 2022

Temp ( °F °C ) Dew Point ( °F °C ) Humidity (%) Winds ( mph kmh ) Pressure ( in mb ) Visibility ( mi km ) Precip ( " mm )
12:53 am 00:53 Clear 36 2.2 32 0 86 86 SSW 9 15 29.99 1016 10 16 0.00 0.00
1:53 am 01:53 Clear 36 2.2 32 0 86 86 S 7 11 29.97 1015 10 16 0.00 0.00
2:53 am 02:53 Clear 37 2.8 33 0.6 86 86 SSW 10 17 29.93 1014 10 16 0.00 0.00
3:53 am 03:53 Clear 37 2.8 32 0 82 82 SSW 9 15 29.91 1013 10 16 0.00 0.00
4:53 am 04:53 Clear 35 1.7 30 -1.1 82 82 SSW 10 17 29.91 1013 10 16 0.00 0.00
5:53 am 05:53 Partly Cloudy 34 1.1 30 -1.1 85 85 WSW 6 9 29.91 1013 10 16 0.00 0.00
6:53 am 06:53 Mostly Sunny 39 3.9 32 0 76 76 SSW 14 22 29.89 1012 10 16 0.00 0.00
7:53 am 07:53 Sunny 45 7.2 34 1.1 66 66 SW 13 20 29.89 1012 10 16 0.00 0.00
8:53 am 08:53 Sunny 50 10 33 0.6 52 52 SW 17 28 29.88 1012 10 16 0.00 0.00
9:53 am 09:53 Sunny 53 11.7 31 -0.6 43 43 SW 22 35 29.86 1011 10 16 0.00 0.00
10:53 am 10:53 Mostly Sunny 54 12.2 31 -0.6 42 42 W 30 48 29.90 1013 10 16 0.00 0.00
11:53 am 11:53 Mostly Cloudy 54 12.2 20 -6.7 26 26 W 30 48 29.91 1013 10 16 0.00 0.00
12:53 pm 12:53 Mostly Sunny 53 11.7 17 -8.3 24 24 WSW 36 57 29.93 1014 10 16 0.00 0.00
1:53 pm 13:53 Mostly Cloudy 50 10 14 -10 24 24 WSW 31 50 29.97 1015 10 16 0.00 0.00
2:53 pm 14:53 Mostly Sunny 50 10 16 -8.9 26 26 W 29 46 29.96 1015 10 16 0.00 0.00
3:53 pm 15:53 Mostly Sunny 49 9.4 14 -10 25 25 W 38 61 29.98 1015 10 16 0.00 0.00
4:53 pm 16:53 Mostly Sunny 49 9.4 11 -11.7 21 21 W 37 59 29.99 1016 10 16 0.00 0.00
5:53 pm 17:53 Sunny 48 8.9 13 -10.6 24 24 W 29 46 30.01 1016 10 16 0.00 0.00
6:53 pm 18:53 Mostly Sunny 46 7.8 14 -10 27 27 W 30 48 30.01 1016 10 16 0.00 0.00
7:53 pm 19:53 Sunny 44 6.7 14 -10 30 30 W 23 37 30.01 1016 10 16 0.00 0.00
8:53 pm 20:53 Sunny 41 5 15 -9.4 35 35 W 22 35 30.02 1017 10 16 0.00 0.00
9:53 pm 21:53 Clear 38 3.3 16 -8.9 41 41 WSW 17 28 30.04 1017 10 16 0.00 0.00
10:53 pm 22:53 Clear 37 2.8 16 -8.9 42 42 SW 18 30 30.06 1018 10 16 0.00 0.00
11:53 pm 23:53 Clear 36 2.2 16 -8.9 44 44 SW 15 24 30.06 1018 10 16 0.00 0.00

Powered by AerisWeather